[TLELIST] Archives

 

Current TLEs

December 13th 2007 PST

HST 1 20580U 90037B 07344.56131931 +.00000350 +00000-0 +14271-4 0 00405 2 20580 028.4664 119.9430 0003803 168.0313 192.0358 15.00311994766471 ISS (ZARYA) 1 25544U 98067A 07346.17143946 .00026795 00000-0 16233-3 0 4975 2 25544 051.6400 266.2186 0000622 346.6140 159.6006 15.77361742518850 CXO 1 25867U 99040B 07344.79166667 .00000447 00000-0 10000-3 0 1447 2 25867 062.8192 085.3344 6502057 281.2498 353.6024 00.37804534 2913 ____________________________________________________________________ These 2-Line ...Continue Reading

Current TLEs

December 12th 2007 PST

HST 1 20580U 90037B 07343.82957823 +.00000345 +00000-0 +13918-4 0 00354 2 20580 028.4664 124.7138 0003799 160.3875 199.6861 15.00311692766367 ISS (ZARYA) 1 25544U 98067A 07344.95778571 .00022461 00000-0 13726-3 0 4911 2 25544 051.6396 272.4814 0000598 306.9172 143.0246 15.77281619518663 CXO 1 25867U 99040B 07344.79166667 .00000447 00000-0 10000-3 0 1447 2 25867 062.8192 085.3344 6502057 281.2498 353.6024 00.37804534 2913 ____________________________________________________________________ These 2-Line ...Continue Reading

Current TLEs

December 11th 2007 PST

HST 1 20580U 90037B 07342.76522705 +.00000342 +00000-0 +13645-4 0 00368 2 20580 028.4661 131.6552 0003754 150.1255 209.9546 15.00311240766208 ISS (ZARYA) 1 25544U 98067A 07344.20651862 .00020917 00000-0 12834-3 0 4870 2 25544 051.6392 276.3581 0000579 315.2246 186.0130 15.77241873518541 CXO 1 25867U 99040B 07344.79166667 .00000447 00000-0 10000-3 0 1447 2 25867 062.8192 085.3344 6502057 281.2498 353.6024 00.37804534 2913 ____________________________________________________________________ These 2-Line ...Continue Reading

Current TLEs

December 10th 2007 PST

HST 1 20580U 90037B 07341.83391998 .00000307 00000-0 10942-4 0 226 2 20580 028.4664 137.7282 0003775 140.1147 219.9725 15.00310668766067 ISS (ZARYA) 1 25544U 98067A 07343.37458451 .00020246 00000-0 12456-3 0 4837 2 25544 051.6404 280.6485 0000524 313.0633 141.2500 15.77203764518419 CXO 1 25867U 99040B 07342.16666667 .00000419 00000-0 10000-3 0 1439 2 25867 062.8090 085.3866 6495675 281.2926 356.2314 00.37804177 2905 ____________________________________________________________________ These 2-Line ...Continue Reading

Current TLEs

December 9th 2007 PST

HST 1 20580U 90037B 07341.83391998 .00000307 00000-0 10942-4 0 226 2 20580 028.4664 137.7282 0003775 140.1147 219.9725 15.00310668766067 ISS (ZARYA) 1 25544U 98067A 07342.36949172 .00019366 00000-0 11957-3 0 4779 2 25544 051.6400 285.8340 0000534 307.7889 195.8854 15.77158863518254 CXO 1 25867U 99040B 07342.16666667 .00000419 00000-0 10000-3 0 1439 2 25867 062.8090 085.3866 6495675 281.2926 356.2314 00.37804177 2905 ____________________________________________________________________ These 2-Line ...Continue Reading

Current TLEs

December 8th 2007 PST

HST 1 20580U 90037B 07340.70304628 .00000285 00000-0 92066-5 0 217 2 20580 028.4671 145.1101 0003995 130.7786 229.3149 15.00310380765892 ISS (ZARYA) 1 25544U 98067A 07341.22830404 .00017451 00000-0 10841-3 0 4729 2 25544 051.6385 291.7224 0000745 296.7542 203.2126 15.77106383518076 CXO 1 25867U 99040B 07342.16666667 .00000419 00000-0 10000-3 0 1439 2 25867 062.8090 085.3866 6495675 281.2926 356.2314 00.37804177 2905 ____________________________________________________________________ These 2-Line ...Continue Reading

Current TLEs

December 7th 2007 PST

HST 1 20580U 90037B 07339.57217119 .00000292 00000-0 97728-5 0 205 2 20580 028.4674 152.4855 0003911 120.0452 240.0522 15.00310243765727 ISS (ZARYA) 1 25544U 98067A 07339.51137853 .00016421 00000-0 10255-3 0 4631 2 25544 051.6400 300.5791 0000571 277.7284 187.8458 15.77041204517806 CXO 1 25867U 99040B 07339.54166667 .00000410 00000-0 10000-3 0 1422 2 25867 062.7955 085.4248 6489409 281.3529 358.8346 00.37804172 2893 ____________________________________________________________________ These 2-Line ...Continue Reading

Current TLEs

December 6th 2007 PST

HST 1 20580U 90037B 07330.85776693 .00000412 00000-0 19096-4 0 142 2 20580 028.4682 209.3145 0003443 026.7935 333.2830 15.00307838764416 ISS (ZARYA) 1 25544U 98067A 07331.53224545 .00020960 00000-0 13130-3 0 4177 2 25544 051.6414 341.7286 0001119 199.0548 299.5177 15.76767329516546 CXO 1 25867U 99040B 07331.58333333 .00000359 00000-0 10000-3 0 1392 2 25867 062.7678 085.6071 6474146 281.5199 355.2570 00.37797158 2860 ____________________________________________________________________ These 2-Line ...Continue Reading

Current TLEs

December 5th 2007 PST

HST 1 20580U 90037B 07330.85776693 .00000412 00000-0 19096-4 0 142 2 20580 028.4682 209.3145 0003443 026.7935 333.2830 15.00307838764416 ISS (ZARYA) 1 25544U 98067A 07331.53224545 .00020960 00000-0 13130-3 0 4177 2 25544 051.6414 341.7286 0001119 199.0548 299.5177 15.76767329516546 CXO 1 25867U 99040B 07331.58333333 .00000359 00000-0 10000-3 0 1392 2 25867 062.7678 085.6071 6474146 281.5199 355.2570 00.37797158 2860 ____________________________________________________________________ These 2-Line ...Continue Reading

Current TLEs

December 4th 2007 PST

HST 1 20580U 90037B 07330.85776693 .00000412 00000-0 19096-4 0 142 2 20580 028.4682 209.3145 0003443 026.7935 333.2830 15.00307838764416 ISS (ZARYA) 1 25544U 98067A 07331.53224545 .00020960 00000-0 13130-3 0 4177 2 25544 051.6414 341.7286 0001119 199.0548 299.5177 15.76767329516546 CXO 1 25867U 99040B 07331.58333333 .00000359 00000-0 10000-3 0 1392 2 25867 062.7678 085.6071 6474146 281.5199 355.2570 00.37797158 2860 ____________________________________________________________________ These 2-Line ...Continue Reading
  • This mailing list is a public mailing list - anyone may join or leave, at any time.
  • This mailing list is announce-only.

International Space Station (ISS) / Hubble Space Telescope (HST) / Chandra X-Ray Observatory Orbital Data via EMAIL

Privacy Policy:

Private list